Wind_Speed
10 10 9 8 8 8 7 8 7 7 6 6 5 5 4 4 4 3 2 2 2 2 1 0 1 2 3 3 3 3 4 4 5 4 5 5 5 5 5 6 5 4 4
10 9 8 8 7 7 8 8 7 7 6 5 5 5 4 4 4 3 2 3 3 2 1 1 1 2 2 3 3 3 3 3 4 4 4 5 5 6 6 5 5 4 4
10 9 8 7 7 7 8 8 7 7 6 5 5 5 5 4 4 3 3 3 3 2 2 1 1 2 2 3 3 3 3 4 3 4 5 5 6 7 7 6 5 5 4
10 9 7 7 7 7 7 8 7 7 6 5 5 5 5 4 4 3 3 3 3 2 2 2 2 1 2 2 2 2 3 4 4 4 5 6 6 6 6 5 5 4 4
11 10 7 7 7 7 7 8 7 6 6 5 5 5 5 4 3 3 3 3 2 2 1 1 2 2 2 2 2 2 3 3 3 4 4 5 5 5 5 5 6 5 4
11 10 8 7 7 7 7 7 7 6 5 5 5 4 4 4 4 4 3 3 2 2 1 0 0 1 2 2 2 2 3 3 4 4 3 3 4 4 4 4 5 5 5
11 10 9 8 7 7 7 7 7 6 5 5 5 4 4 4 4 4 3 3 2 2 2 2 1 0 0 2 1 1 2 2 3 2 3 3 4 4 4 4 4 5 6
10 10 9 8 7 7 8 7 7 6 6 5 5 4 4 4 5 4 4 3 2 3 3 2 1 0 0 0 0 0 1 1 2 3 4 4 4 4 4 5 5 6 7
10 10 9 8 8 8 8 8 7 6 6 6 5 5 5 5 4 4 3 2 2 2 2 2 2 1 1 1 1 2 2 2 3 4 4 4 5 5 5 5 5 6 6
9 9 8 9 9 8 8 8 8 7 7 7 6 5 5 4 4 3 3 3 3 2 2 2 1 1 1 2 2 2 2 3 3 4 5 5 5 5 5 6 7 6 7
8 8 7 8 8 8 8 8 8 8 7 7 6 6 5 5 5 4 4 4 3 3 3 3 2 2 2 3 3 3 3 4 4 4 5 5 5 5 6 7 7 7 8
7 7 7 7 8 8 8 8 8 8 7 6 6 6 5 5 5 5 4 4 3 4 4 4 3 3 3 3 4 4 4 4 4 5 5 5 5 5 6 7 7 7 7
7 7 6 6 7 8 8 8 8 8 7 6 6 6 6 5 5 5 4 3 3 4 4 4 4 4 3 3 4 4 4 4 5 5 6 6 5 5 5 6 6 6 6
7 7 6 6 7 7 8 8 7 8 7 6 7 7 6 6 5 5 4 4 4 5 5 4 4 4 4 4 5 5 5 5 5 6 6 5 5 5 5 5 6 6 6
7 7 7 7 7 7 7 7 7 7 7 7 7 7 7 6 5 5 4 3 4 4 4 4 5 4 5 5 5 5 6 5 5 6 6 5 5 5 5 4 5 6 6
8 8 7 7 7 7 7 7 7 7 7 7 7 7 6 6 6 6 5 4 4 4 4 4 5 5 6 6 7 6 6 6 6 7 7 6 5 5 6 5 5 6 6
10 9 8 7 7 7 7 7 7 7 7 7 6 6 6 6 7 7 6 5 5 4 5 5 5 6 7 7 7 7 7 7 7 7 6 6 5 5 5 5 6 6 6
10 10 9 8 8 7 7 7 7 7 7 7 7 6 7 6 7 7 7 7 6 5 5 5 6 6 7 8 8 7 8 7 7 6 6 5 6 6 6 6 6 6 7
10 10 10 9 9 8 8 8 8 8 8 7 7 7 7 7 7 7 8 8 8 7 7 7 7 8 8 8 7 7 7 6 7 7 7 6 6 6 5 6 6 6 6
12 11 11 10 10 9 9 9 9 9 9 8 8 8 8 8 8 8 8 9 9 8 8 8 8 8 8 8 8 8 7 6 7 7 8 7 6 5 6 5 6 6 7
14 13 12 11 11 10 10 10 10 10 9 9 9 9 9 9 9 8 9 9 9 10 9 9 9 9 9 8 8 8 8 8 8 9 8 8 8 7 6 6 5 6 7
16 15 14 13 12 12 11 11 11 11 10 10 10 10 10 10 10 9 9 9 10 10 10 10 9 9 10 10 9 9 9 9 9 9 9 9 8 7 7 7 7 7 7
17 16 15 14 14 14 14 13 13 12 12 12 12 11 11 11 11 11 10 10 11 11 10 10 10 10 10 10 10 10 9 9 10 10 9 8 8 8 8 8 8 8 9
18 18 17 16 16 16 15 15 14 13 13 13 13 12 12 12 12 12 11 12 12 11 11 11 11 11 10 11 10 10 10 9 9 10 10 10 10 10 10 10 9 10 10
20 20 19 18 17 17 17 16 16 15 14 14 14 13 13 13 13 13 13 13 12 12 12 12 12 12 11 11 11 11 11 11 10 10 10 11 11 11 12 12 12 12 12
22 21 20 19 18 18 18 18 17 16 15 15 15 15 15 15 14 14 14 13 13 13 13 13 13 13 13 12 11 12 12 12 11 11 11 11 11 12 12 13 13 13 13
Wind_Direction
13 18 19 18 16 15 16 20 21 16 13 13 13 14 14 7 1 1 357 331 320 343 346 170 180 178 188 198 197 204 192 204 213 206 206 202 203 208 194 192 189 190 190
13 17 17 17 14 12 12 14 16 16 14 11 11 11 8 3 360 360 352 338 325 345 335 244 177 178 191 196 210 214 208 204 205 207 209 212 217 211 204 203 202 196 196
16 16 14 16 15 11 8 7 7 10 11 10 9 8 4 0 359 359 350 339 331 324 286 225 176 175 188 199 213 224 217 212 217 220 218 224 228 219 210 208 208 207 200
17 13 10 16 17 13 8 4 4 3 5 6 4 2 358 353 355 353 349 348 337 311 274 219 207 188 199 216 215 215 214 224 232 234 228 228 228 222 214 211 215 217 216
15 16 19 20 18 14 8 2 2 3 4 2 358 357 355 349 344 342 341 347 341 315 313 177 229 223 224 215 206 212 231 239 239 231 230 228 226 223 223 223 221 219 220
15 20 25 21 15 14 11 5 2 2 3 0 352 352 350 343 333 325 332 340 334 311 330 41 96 211 226 233 223 225 236 249 245 239 233 227 226 222 220 224 223 222 221
13 17 21 19 15 15 10 9 3 3 3 358 350 352 349 341 330 314 314 327 316 303 307 288 297 235 209 201 214 223 236 261 258 256 231 230 230 230 231 228 235 231 227
10 13 17 18 14 12 9 7 4 1 359 356 350 344 339 329 322 316 314 309 301 291 284 262 240 328 56 343 349 260 248 266 266 258 244 243 241 243 246 245 244 238 234
10 12 15 17 16 15 11 8 5 0 357 1 356 347 339 328 323 320 321 313 303 281 261 240 234 350 4 312 299 276 262 264 268 267 266 260 258 255 257 253 254 248 236
7 9 13 13 12 14 11 7 3 358 354 358 358 350 342 338 334 329 325 316 298 289 276 284 303 333 318 294 280 262 262 268 270 271 277 275 271 268 265 260 257 253 241
7 8 11 13 8 9 8 8 3 357 352 352 352 353 357 353 346 336 325 315 302 289 282 282 286 297 297 293 289 275 277 274 274 274 283 287 280 275 270 264 263 258 248
2 7 8 10 8 4 2 3 359 356 350 347 347 353 355 353 348 339 327 320 298 283 277 275 278 282 289 294 289 277 281 283 277 280 286 294 289 280 275 269 267 258 248
356 360 358 1 356 356 358 359 357 355 351 354 356 354 353 349 343 338 328 320 305 292 277 270 269 272 285 294 287 275 276 281 277 283 290 296 295 285 280 271 262 254 246
345 348 349 350 349 350 354 354 354 353 351 354 351 350 349 345 346 341 336 331 320 309 296 275 270 277 283 288 289 286 290 289 285 287 292 293 296 290 280 266 255 251 250
331 332 335 337 340 343 345 346 348 350 348 343 343 350 352 350 345 342 342 337 324 312 297 283 276 279 291 293 289 285 289 289 285 288 284 285 295 289 286 267 254 250 249
314 315 316 325 329 333 335 336 340 344 345 338 337 342 351 356 351 343 339 335 324 315 301 292 287 283 287 289 291 288 284 287 288 288 283 283 290 290 285 272 252 241 236
305 300 303 308 314 321 327 330 332 334 335 337 332 337 341 344 348 346 338 332 325 316 313 303 296 294 291 290 292 290 285 290 287 290 287 282 287 290 284 281 255 244 241
303 302 298 298 302 308 320 322 321 321 322 331 333 333 332 327 327 334 334 329 319 312 309 303 290 294 297 292 290 292 289 290 287 287 290 284 282 284 280 275 262 246 243
295 302 302 295 298 302 309 314 313 312 314 318 324 327 326 322 315 314 315 316 314 308 303 296 290 291 293 292 285 286 287 286 285 285 287 279 273 275 279 269 263 246 243
287 296 300 294 287 291 298 304 304 304 304 304 311 318 317 316 313 306 305 308 307 303 299 295 295 293 290 288 284 284 282 284 286 286 286 283 276 268 266 264 262 256 253
285 288 291 289 283 285 290 295 296 296 295 293 296 304 310 311 310 305 300 303 301 297 294 291 290 291 290 287 282 284 285 284 284 283 283 284 282 273 261 258 264 258 258
282 284 286 282 285 282 284 285 286 287 288 288 291 296 300 303 303 303 303 303 304 299 296 294 288 288 286 282 282 282 279 282 279 277 279 277 278 274 268 272 265 266 265
277 280 280 279 278 280 283 281 279 279 279 280 286 288 290 295 298 299 297 298 300 299 294 292 289 290 288 286 283 280 278 274 277 275 274 275 279 277 275 276 277 272 271
271 274 276 277 275 276 280 278 276 276 274 276 281 282 285 289 293 293 293 297 296 295 292 289 288 291 295 292 286 278 278 275 274 272 272 272 274 276 275 277 278 276 276
270 271 271 272 273 275 277 277 273 272 272 273 276 277 282 287 291 290 289 293 292 290 289 287 286 288 290 289 288 284 279 277 277 276 273 270 272 273 273 276 278 280 281
267 268 266 269 270 272 274 275 272 269 270 272 273 274 279 283 286 287 287 288 287 286 286 284 284 286 289 286 286 286 286 284 283 281 278 275 275 273 274 278 278 279 280
Height
5896 5894 5893 5892 5891 5891 5890 5889 5888 5887 5886 5886 5885 5884 5883 5883 5882 5882 5881 5880 5879 5878 5878 5877 5877 5877 5878 5878 5878 5879 5879 5880 5880 5881 5881 5881 5882 5883 5883 5883 5884 5884 5884
5896 5895 5894 5893 5892 5891 5890 5889 5888 5888 5887 5886 5885 5885 5884 5883 5883 5882 5881 5880 5879 5878 5878 5877 5877 5877 5877 5878 5878 5879 5879 5879 5880 5880 5880 5881 5881 5882 5882 5883 5883 5884 5884
5896 5895 5894 5893 5892 5891 5891 5890 5889 5888 5887 5886 5886 5885 5884 5883 5883 5882 5881 5880 5879 5879 5878 5877 5877 5877 5877 5878 5878 5878 5879 5879 5879 5879 5880 5880 5880 5881 5882 5882 5883 5883 5883
5897 5894 5893 5893 5892 5892 5891 5890 5889 5888 5887 5886 5886 5885 5884 5883 5882 5882 5881 5880 5880 5879 5878 5877 5877 5877 5877 5878 5878 5878 5878 5878 5878 5879 5879 5880 5880 5880 5881 5881 5882 5882 5883
5897 5893 5891 5893 5893 5892 5891 5890 5889 5888 5887 5886 5886 5885 5884 5883 5882 5881 5881 5880 5879 5879 5878 5877 5877 5877 5877 5877 5877 5878 5878 5878 5878 5878 5878 5879 5879 5880 5880 5880 5881 5881 5882
5897 5895 5893 5893 5893 5892 5892 5890 5889 5888 5887 5886 5885 5885 5884 5883 5882 5881 5881 5880 5880 5879 5878 5878 5877 5877 5877 5877 5877 5877 5877 5877 5877 5877 5878 5878 5878 5879 5879 5879 5879 5880 5881
5898 5897 5895 5894 5893 5892 5892 5890 5889 5888 5887 5886 5885 5884 5883 5883 5882 5881 5880 5880 5879 5879 5878 5878 5877 5877 5877 5876 5877 5877 5877 5877 5877 5877 5877 5877 5878 5878 5878 5878 5878 5879 5879
5899 5898 5896 5895 5894 5893 5891 5890 5889 5888 5887 5886 5885 5884 5883 5882 5882 5881 5880 5879 5879 5879 5878 5877 5877 5877 5876 5876 5876 5876 5876 5876 5876 5876 5876 5876 5876 5877 5877 5877 5877 5877 5878
5899 5898 5897 5895 5894 5893 5891 5890 5889 5888 5887 5885 5884 5883 5882 5882 5881 5880 5880 5879 5879 5878 5878 5877 5877 5877 5877 5876 5876 5876 5876 5875 5875 5875 5875 5875 5875 5875 5875 5875 5875 5876 5876
5899 5898 5897 5896 5894 5893 5891 5890 5889 5888 5887 5885 5884 5883 5882 5881 5880 5880 5879 5879 5878 5878 5877 5877 5877 5876 5876 5876 5875 5875 5875 5875 5874 5874 5874 5874 5874 5873 5873 5873 5874 5874 5874
5899 5898 5897 5896 5894 5893 5892 5890 5889 5888 5887 5885 5884 5883 5882 5881 5880 5879 5879 5878 5877 5877 5877 5876 5876 5876 5876 5875 5875 5874 5874 5873 5873 5873 5873 5872 5872 5871 5871 5871 5871 5872 5872
5899 5898 5897 5896 5894 5893 5892 5890 5889 5888 5886 5885 5884 5883 5882 5881 5880 5879 5878 5877 5877 5876 5876 5876 5875 5875 5875 5874 5873 5873 5872 5872 5872 5872 5871 5871 5870 5869 5869 5869 5869 5869 5869
5899 5898 5897 5895 5894 5893 5892 5890 5889 5887 5886 5885 5884 5882 5881 5880 5879 5878 5877 5877 5876 5876 5875 5875 5875 5874 5874 5873 5872 5872 5871 5871 5870 5870 5869 5869 5868 5867 5867 5867 5867 5867 5867
5898 5897 5896 5895 5894 5893 5891 5890 5889 5887 5886 5885 5883 5882 5881 5880 5879 5878 5877 5876 5876 5875 5874 5874 5874 5873 5873 5872 5871 5870 5870 5869 5869 5868 5867 5866 5866 5866 5866 5865 5865 5865 5866
5897 5896 5895 5894 5893 5892 5891 5889 5888 5887 5886 5884 5883 5882 5880 5879 5878 5877 5876 5875 5875 5874 5874 5873 5873 5872 5872 5871 5870 5869 5868 5868 5867 5866 5865 5865 5864 5864 5864 5863 5863 5864 5864
5895 5894 5894 5893 5892 5891 5890 5888 5887 5886 5885 5884 5882 5881 5880 5879 5877 5876 5875 5874 5874 5873 5873 5872 5872 5871 5871 5870 5869 5868 5867 5867 5866 5865 5864 5863 5862 5862 5862 5862 5862 5862 5862
5893 5892 5891 5890 5890 5890 5889 5887 5886 5885 5884 5883 5881 5880 5879 5878 5877 5876 5875 5874 5873 5873 5872 5871 5871 5870 5869 5869 5868 5866 5866 5865 5864 5863 5862 5862 5861 5861 5860 5860 5860 5860 5861
5890 5890 5889 5888 5888 5888 5887 5886 5885 5884 5883 5882 5881 5879 5878 5877 5877 5875 5874 5873 5872 5872 5871 5870 5870 5869 5868 5867 5866 5865 5864 5864 5863 5862 5861 5860 5860 5859 5859 5859 5859 5858 5859
5888 5888 5887 5886 5886 5886 5885 5884 5883 5883 5882 5881 5880 5878 5877 5876 5875 5874 5873 5872 5871 5870 5870 5869 5868 5867 5866 5865 5864 5864 5863 5862 5861 5861 5860 5859 5858 5858 5857 5857 5857 5856 5856
5885 5885 5885 5884 5883 5883 5882 5882 5881 5881 5880 5879 5878 5877 5876 5875 5874 5872 5872 5871 5870 5869 5868 5867 5866 5865 5864 5863 5863 5862 5861 5860 5859 5859 5858 5857 5856 5856 5856 5855 5855 5855 5855
5882 5882 5882 5881 5881 5880 5879 5879 5879 5878 5878 5877 5876 5875 5874 5873 5872 5871 5870 5869 5868 5867 5866 5865 5864 5863 5862 5862 5861 5860 5860 5859 5858 5857 5856 5855 5855 5854 5854 5853 5853 5853 5853
5879 5879 5879 5878 5878 5877 5876 5876 5876 5876 5875 5874 5874 5873 5872 5871 5870 5869 5868 5867 5866 5865 5864 5863 5862 5861 5860 5860 5859 5858 5857 5857 5856 5855 5854 5853 5853 5852 5852 5852 5851 5851 5850
5875 5875 5875 5875 5875 5874 5874 5873 5873 5873 5872 5872 5871 5870 5870 5868 5867 5866 5866 5865 5863 5862 5861 5860 5859 5859 5858 5857 5856 5856 5855 5854 5853 5853 5852 5852 5851 5850 5850 5849 5849 5849 5848
5870 5870 5871 5871 5871 5870 5870 5869 5869 5869 5869 5869 5868 5867 5866 5866 5865 5864 5863 5862 5861 5860 5858 5857 5857 5856 5855 5854 5853 5853 5852 5851 5851 5850 5849 5849 5848 5848 5848 5847 5847 5846 5846
5865 5866 5866 5867 5866 5866 5866 5865 5865 5865 5865 5865 5864 5864 5863 5862 5861 5861 5860 5859 5858 5857 5856 5854 5854 5853 5852 5851 5850 5849 5849 5848 5847 5847 5847 5846 5846 5845 5845 5844 5844 5843 5843
5860 5861 5861 5861 5861 5861 5861 5860 5860 5861 5861 5861 5860 5860 5859 5858 5858 5857 5856 5855 5855 5853 5852 5851 5850 5850 5849 5847 5847 5846 5845 5844 5844 5843 5843 5843 5842 5842 5842 5841 5840 5840 5839